Showing default

EXPRESS 103, 45985

Orbit data source: Space-Track

EXPRESS 103, 45985 is a payload satellite owned by KosSvyaz (CIS) in GEO that was launched on Thu, 30 Jul 2020 UTC via a PROTON-M/BRIZ-M launch vehicle from the Tyuratam Missile And Space Complex (TTMTR). Payload-class satellites include a variety of spacecraft equipped with specific instruments for various scientific and technological missions. These include communications satellites like Starlink; space stations such as the ISS; scientific satellites like the Hubble; Earth observation satellites from companies like Planet Labs, Umbra, and HawkEye 360; GPS; miniature CubeSats for education and research; and military/defense satellites.

Not visible in the next 10 days
Identifier
45985, 2020-053A
Orbit
GEO
Country
Flag of CISCIS
Related business
Manufacturer
Resehetnev ISS
Mission
Operational Commercial Communications
Bus & Motor
EKSPRESS-1000N, AOCS
Mass
2,280 kg wet, ~1,800 kg dry
Launch date (UTC)
2020-07-30 (5 years ago)
Launch vehicle
PROTON-M/BRIZ-M
Launch site
Tyuratam Missile And Space Complex (TTMTR)
Object type
Payload
Rocket body
Debris
Shape & HBR
Box + 2 Pan, Unknown HBR
Radar Cross Section
16.987 m², Large (>1 m²)

Expand to show TLE details & history
Last TLE update: 8 hours ago

TLE from 8 hours ago
0 EXPRESS 103
1 45985U 20053A   25353.63858267  .00000000  00000-0  00000+0 0  9993
2 45985   0.0248 336.4321 0000614 134.2087 304.2300  1.00270026 19847
Epoch: 2025-12-19T15:19Z
TLE epoch observation values (Epoch: 2025-12-19T15:19:33.542Z)
Latitude
0.04938°
Longitude
96.48747°
Altitude
35,785.103 km
Speed
3.075 km/s
True Right ascension
03h 39m 24s
True Declination
0° 02' 58"
Sunlit
Object was in daylight at epoch
Visualization orbit readout
Latitude
Unknown
Longitude
Unknown
Altitude
Unknown
Speed
Unknown
Apparent Right ascension
Unknown
Apparent Declination
Unknown
Sunlit
N/A
Visualization observer readout
Local Sidereal Time
22:08:32
Azimuth
Unknown
Elevation
Unknown
Doppler factor
Unknown
Orbital elements
Apogee altitude
35,790.747 km
Perigee altitude
35,785.569 km
Semi-major axis
42,166.295 km
Eccentricity
0.00006
Inclination
0.0248°
RAAN
336.4321°
Arg. of periapsis
134.2087°
True anomaly
304.22418°
Mean anomaly
304.23°
Eccentric anomaly
304.22709°
Mean motion
0.25067 °/min
Orbital period
1,436.18 mins
BSTAR
0
Loading maneuver chart data...
Computing Atmospheric mass density...
Loading historical data...
Loading historical data...
Loading historical data...
Loading historical data...
Loading historical data...
Loading historical data...
Loading historical data...
Other satellites on launch #53 in the year 2020 (2020-07-30 UTC)

Documentation

Showing up to 5 results
|